FW6147 Weather Reports


time (UTC)temp
F
wind
direction
speed
knots
gust
knots
rain 1hr
in
rain 24hr
in
rain mn
in
humidity
%
barometer
mb
20260901035556 69 0 0.0 6.1 0.00 0.21 0.21 81 1022.3
20260901035056 69 120 1.7 6.1 0.00 0.21 0.21 82 1022.2
20260901034602 69 106 2.6 6.1 0.00 0.21 0.21 82 1022.0
20260901034053 69 0 1.7 5.2 0.00 0.21 0.21 83 1022.0
20260901033553 69 174 1.7 2.6 0.00 0.21 0.21 84 1022.0
20260901033101 69 181 0.9 2.6 0.00 0.21 0.21 83 1021.9
20260901032557 69 181 1.7 2.6 0.00 0.21 0.21 83 1022.0
20260901032055 69 181 1.7 2.6 0.00 0.21 0.21 82 1022.1
20260901031615 69 181 0.9 2.6 0.00 0.21 0.21 83 1022.0
20260901031055 69 181 0.9 3.5 0.00 0.21 0.21 83 1021.9
20260901030553 69 181 1.7 5.2 0.00 0.21 0.21 83 1021.9
20260901030105 69 181 1.7 5.2 0.00 0.21 0.21 83 1021.9
20260901025555 69 181 0.0 3.5 0.00 0.21 0.21 83 1021.9
20260901025056 69 0 0.0 3.5 0.00 0.21 0.21 83 1021.8
20260901024600 69 181 1.7 5.2 0.00 0.21 0.21 84 1021.7
20260901024055 69 182 0.9 5.2 0.00 0.21 0.21 84 1021.6
20260901023554 69 188 2.6 4.3 0.00 0.21 0.21 84 1021.6
20260901023105 70 249 0.9 2.6 0.00 0.21 0.21 85 1021.5
20260901022554 70 0 0.0 0.9 0.00 0.21 0.21 85 1021.3
20260901022056 70 0 0.0 0.9 0.00 0.21 0.21 84 1021.1
20260901021602 70 0 0.0 0.0 0.00 0.21 0.21 84 1021.1
20260901021055 70 0 0.0 0.0 0.00 0.21 0.21 83 1021.0
20260901020552 70 0 0.0 0.9 0.00 0.21 0.21 83 1021.0
20260901020104 70 0 0.0 0.9 0.00 0.21 0.21 82 1020.9
20260901015554 70 0 0.0 0.9 0.00 0.21 0.21 82 1020.7
20260901015053 70 0 0.0 0.9 0.00 0.21 0.21 81 1020.7
20260901014602 70 249 0.0 0.9 0.00 0.21 0.21 81 1020.5
20260901014055 70 0 0.0 0.9 0.00 0.21 0.21 80 1020.5
20260901013555 70 0 0.0 0.0 0.00 0.21 0.21 80 1020.4
20260901013101 69 0 0.0 0.0 0.00 0.21 0.21 79 1020.4
20260901012554 69 0 0.0 0.0 0.00 0.21 0.21 79 1020.4
20260901012055 70 0 0.0 0.0 0.00 0.21 0.21 80 1020.2
20260901011602 70 0 0.0 0.9 0.00 0.21 0.21 80 1020.3
20260901011054 70 0 0.0 0.9 0.00 0.21 0.21 79 1020.4
20260901010559 70 0 0.0 0.9 0.00 0.21 0.21 78 1020.5
20260901010101 70 0 0.0 0.0 0.00 0.21 0.21 78 1020.4
20260901005555 70 0 0.0 0.0 0.00 0.21 0.21 78 1020.3
20260901005055 70 0 0.0 0.0 0.00 0.21 0.21 77 1020.3
20260901004609 70 0 0.0 0.0 0.00 0.21 0.21 77 1020.3
20260901004051 69 0 0.0 0.0 0.00 0.21 0.21 76 1020.2
20260901003552 69 0 0.0 0.0 0.00 0.21 0.21 74 1020.2
20260901003101 69 0 0.0 0.0 0.00 0.21 0.21 76 1020.2
20260901002556 69 0 0.0 0.0 0.00 0.21 0.21 78 1020.0
20260901002054 69 0 0.0 0.0 0.00 0.21 0.21 78 1020.0
20260901001608 69 0 0.0 0.0 0.00 0.21 0.21 78 1020.0
20260901001052 69 0 0.0 0.0 0.00 0.21 0.21 79 1020.1
20260901000552 69 0 0.0 0.0 0.00 0.21 0.21 80 1020.1
20260901000111 69 0 0.0 0.9 0.00 0.21 0.21 82 1020.2
20260831235557 69 0 0.0 0.9 0.01 0.21 0.21 83 1020.3
20260831235055 69 0 0.0 0.9 0.01 0.21 0.21 84 1020.5
20260831234628 68 0 0.0 0.0 0.01 0.21 0.21 84 1020.5
20260831234052 68 0 0.0 0.0 0.01 0.21 0.21 85 1020.7
20260831233556 68 0 0.0 0.9 0.01 0.21 0.21 85 1020.7
20260831233120 68 0 0.0 2.6 0.01 0.21 0.21 86 1020.9
20260831232553 68 0 0.0 3.5 0.02 0.21 0.21 85 1020.9
20260831232054 68 0 0.0 3.5 0.02 0.21 0.21 85 1020.8
20260831231556 68 293 0.0 2.6 0.03 0.21 0.21 86 1020.9
20260831231052 68 0 0.0 1.7 0.03 0.21 0.21 85 1020.8
20260831230556 67 0 0.0 0.9 0.03 0.21 0.21 85 1020.7
20260831230107 67 0 0.0 3.5 0.03 0.21 0.21 83 1020.7
20260831225552 67 0 0.0 5.2 0.02 0.20 0.20 83 1020.6
20260831225051 67 307 0.0 5.2 0.02 0.20 0.20 83 1020.9
20260831224604 67 293 2.6 5.2 0.02 0.20 0.20 82 1021.1
20260831224058 67 307 2.6 7.0 0.02 0.20 0.20 80 1021.2
20260831223555 68 299 2.6 7.0 0.02 0.20 0.20 80 1021.4
20260831223108 68 293 4.3 9.6 0.02 0.20 0.20 78 1021.7
20260831222552 68 311 5.2 10.4 0.01 0.19 0.19 76 1021.9
20260831222054 69 302 6.1 13.0 0.01 0.19 0.19 73 1022.2
20260831221603 70 294 7.8 13.9 0.00 0.18 0.18 70 1022.4
20260831221053 70 281 8.7 17.4 0.00 0.18 0.18 68 1022.4
20260831220558 71 297 9.6 17.4 0.00 0.18 0.18 66 1022.5
20260831215554 71 311 9.6 17.4 0.00 0.18 0.18 65 1022.6
20260831215053 71 336 10.4 19.1 0.00 0.18 0.18 65 1022.7
20260831214608 71 274 13.0 20.9 0.00 0.18 0.18 64 1022.8
20260831214055 72 307 12.2 20.9 0.00 0.18 0.18 65 1022.9
20260831213558 72 258 11.3 20.9 0.00 0.18 0.18 65 1022.9
20260831213104 73 290 12.2 20.9 0.00 0.18 0.18 67 1022.9
20260831212553 73 318 10.4 20.0 0.00 0.18 0.18 66 1023.0
20260831212057 73 318 11.3 20.0 0.00 0.18 0.18 66 1023.1
20260831211606 73 274 13.9 20.0 0.00 0.18 0.18 66 1023.0
20260831211052 74 339 12.2 20.0 0.00 0.18 0.18 66 1023.2
20260831210554 74 294 9.6 20.0 0.00 0.18 0.18 68 1023.2
20260831210058 74 271 11.3 18.2 0.00 0.18 0.18 68 1023.1
20260831205556 74 290 10.4 15.6 0.00 0.18 0.18 67 1023.1
20260831205058 74 287 9.6 15.6 0.00 0.18 0.18 66 1023.1
20260831204629 74 281 7.0 14.8 0.00 0.18 0.18 68 1023.2
20260831204053 74 321 7.0 14.8 0.00 0.18 0.18 69 1023.1
20260831203555 75 245 6.1 14.8 0.00 0.18 0.18 69 1023.3
20260831203121 76 278 7.8 14.8 0.00 0.18 0.18 68 1023.4
20260831202554 77 288 6.1 11.3 0.00 0.18 0.18 64 1023.4
20260831202055 77 285 6.1 11.3 0.00 0.18 0.18 62 1023.4
20260831201604 77 283 5.2 10.4 0.00 0.18 0.18 62 1023.4
20260831201055 77 1 2.6 7.8 0.00 0.18 0.18 64 1023.1
20260831200556 76 316 3.5 7.8 0.00 0.18 0.18 65 1023.2
20260831200104 76 278 3.5 7.0 0.00 0.18 0.18 64 1023.2
20260831195555 76 351 2.6 5.2 0.00 0.18 0.18 66 1023.2
20260831195054 75 358 2.6 5.2 0.00 0.18 0.18 66 1023.2
20260831194606 75 331 1.7 6.1 0.00 0.18 0.18 66 1023.5
20260831194055 74 333 2.6 6.1 0.00 0.18 0.18 68 1023.6
20260831193555 74 304 3.5 6.1 0.00 0.18 0.18 69 1023.7
20260831193101 74 308 1.7 5.2 0.00 0.18 0.18 69 1023.7
20260831192554 75 328 0.9 4.3 0.00 0.18 0.18 69 1023.8
20260831192055 74 305 1.7 6.1 0.00 0.18 0.18 68 1023.7
20260831191600 75 340 1.7 9.6 0.00 0.18 0.18 69 1023.6
20260831191055 75 317 2.6 9.6 0.00 0.18 0.18 70 1023.5
20260831190553 75 327 2.6 9.6 0.00 0.18 0.18 71 1023.5
20260831190107 75 354 2.6 6.1 0.00 0.18 0.18 72 1023.5
20260831185555 75 359 3.5 7.0 0.00 0.18 0.18 71 1023.4
20260831185054 74 348 2.6 7.0 0.00 0.18 0.18 72 1023.4
20260831184601 74 355 2.6 7.0 0.00 0.18 0.18 75 1023.4
20260831184055 74 324 3.5 7.0 0.00 0.18 0.18 75 1023.5
20260831183554 73 1 3.5 6.1 0.00 0.18 0.18 75 1023.5
20260831183104 73 360 2.6 5.2 0.00 0.18 0.18 76 1023.5
20260831182554 73 352 2.6 5.2 0.00 0.18 0.18 74 1023.5
20260831182055 73 358 1.7 5.2 0.00 0.18 0.18 74 1023.5
20260831181559 73 345 1.7 5.2 0.00 0.18 0.18 75 1023.6
20260831181055 73 302 1.7 5.2 0.00 0.18 0.18 76 1023.6
20260831180555 73 300 1.7 5.2 0.00 0.18 0.18 78 1023.7
20260831180104 72 307 2.6 5.2 0.00 0.18 0.18 78 1023.8
20260831175555 72 324 1.7 4.3 0.00 0.18 0.18 80 1023.7
20260831175054 72 319 1.7 5.2 0.00 0.18 0.18 81 1023.7
20260831174610 71 317 1.7 5.2 0.00 0.18 0.18 81 1023.9
20260831174053 71 314 1.7 5.2 0.00 0.18 0.18 82 1024.0
20260831173555 71 338 1.7 5.2 0.00 0.18 0.18 82 1024.1
20260831173103 71 347 2.6 5.2 0.00 0.18 0.18 83 1024.3
20260831172553 70 342 0.9 4.3 0.00 0.18 0.18 83 1024.3
20260831172055 70 359 1.7 4.3 0.00 0.18 0.18 85 1024.2
20260831171603 70 1 0.0 3.5 0.00 0.18 0.18 85 1024.1
20260831171055 70 321 1.7 3.5 0.00 0.18 0.18 86 1024.0
20260831170555 70 298 0.9 3.5 0.00 0.18 0.18 87 1023.8
20260831170104 69 335 0.0 2.6 0.00 0.18 0.18 88 1023.8
20260831165554 69 335 0.0 2.6 0.00 0.18 0.18 88 1023.8
20260831165055 68 335 0.9 3.5 0.00 0.18 0.18 89 1023.7
20260831164606 68 335 0.9 3.5 0.00 0.18 0.18 89 1023.7
20260831164054 68 338 0.9 2.6 0.00 0.18 0.18 89 1023.5
20260831163555 68 341 0.0 2.6 0.00 0.18 0.18 90 1023.5
20260831163105 69 341 0.0 2.6 0.00 0.18 0.18 90 1023.2
20260831162555 69 0 0.0 0.0 0.00 0.18 0.18 91 1023.2
20260831162054 68 0 0.0 2.6 0.00 0.18 0.18 91 1023.0
20260831161610 68 0 0.0 2.6 0.01 0.18 0.18 90 1023.1
20260831161054 68 359 0.9 2.6 0.01 0.18 0.18 90 1023.2
20260831160551 68 359 0.0 3.5 0.02 0.18 0.18 91 1023.2
20260831160109 67 0 0.9 3.5 0.02 0.18 0.18 90 1023.2
20260831155555 67 359 0.9 2.6 0.03 0.18 0.18 90 1023.2
20260831155055 67 359 0.9 4.3 0.04 0.18 0.18 90 1023.1
20260831154632 67 359 1.7 4.3 0.05 0.18 0.18 90 1023.1
20260831154054 67 328 1.7 5.2 0.05 0.18 0.18 91 1022.9
20260831153553 67 353 2.6 5.2 0.05 0.18 0.18 91 1022.9
20260831153105 67 348 1.7 3.5 0.06 0.18 0.18 90 1022.8
20260831152553 67 321 1.7 4.3 0.06 0.18 0.18 90 1022.9
20260831152052 67 334 0.9 4.3 0.06 0.18 0.18 91 1023.0
20260831151609 67 352 1.7 3.5 0.05 0.17 0.17 90 1023.1
20260831151056 67 329 0.9 4.3 0.06 0.17 0.17 90 1023.4
20260831150556 67 313 1.7 4.3 0.06 0.16 0.16 90 1023.5
20260831150106 67 297 2.6 4.3 0.06 0.16 0.16 90 1023.6
20260831145556 67 314 0.0 1.7 0.06 0.15 0.15 90 1023.8
20260831145057 67 0 0.0 1.7 0.05 0.14 0.14 90 1024.0
20260831144603 67 314 0.0 3.5 0.04 0.13 0.13 90 1023.9
20260831144056 67 0 0.0 3.5 0.04 0.13 0.13 89 1023.8
20260831143556 67 0 0.9 3.5 0.04 0.13 0.13 89 1023.7
20260831143119 67 345 0.9 4.3 0.03 0.12 0.12 89 1023.5
20260831142555 67 348 1.7 4.3 0.03 0.12 0.12 89 1023.2
20260831142054 67 347 2.6 5.2 0.03 0.12 0.12 89 1023.4
20260831141610 67 353 1.7 8.7 0.03 0.12 0.12 89 1023.1
20260831141056 67 325 5.2 8.7 0.02 0.11 0.11 89 1022.8
20260831140559 67 311 3.5 6.1 0.01 0.10 0.10 90 1022.8
20260831140107 67 321 0.0 2.6 0.01 0.10 0.10 90 1022.9
20260831135555 67 0 0.0 2.6 0.00 0.09 0.09 90 1022.9
20260831135055 67 172 0.0 2.6 0.00 0.09 0.09 90 1022.9
20260831134605 67 0 0.0 0.9 0.00 0.09 0.09 90 1022.8
20260831134055 67 0 0.0 1.7 0.00 0.09 0.09 90 1022.8
20260831133556 66 0 0.0 5.2 0.00 0.09 0.09 90 1022.6
20260831133106 66 0 1.7 5.2 0.00 0.09 0.09 90 1022.4
20260831132554 66 172 0.0 2.6 0.00 0.09 0.09 90 1022.4
20260831132059 66 0 0.0 0.0 0.00 0.09 0.09 90 1022.1
20260831131622 66 0 0.0 0.0 0.00 0.09 0.09 90 1021.9
20260831131059 66 0 0.0 0.0 0.00 0.09 0.09 90 1021.9
20260831130555 66 0 0.0 1.7 0.00 0.09 0.09 90 1021.6
20260831130114 66 0 0.0 1.7 0.00 0.09 0.09 90 1021.5
20260831125555 66 172 0.0 1.7 0.00 0.09 0.09 90 1021.5
20260831125054 66 0 0.0 6.1 0.00 0.09 0.09 90 1021.5
20260831124607 66 172 1.7 6.1 0.00 0.09 0.09 90 1021.3
20260831124054 66 167 3.5 6.1 0.00 0.09 0.09 90 1021.1
20260831123556 66 168 2.6 6.1 0.00 0.09 0.09 90 1021.1
20260831123105 66 154 4.3 9.6 0.00 0.09 0.09 90 1021.0
20260831122556 66 160 1.7 9.6 0.00 0.09 0.09 90 1020.9
20260831122055 67 143 6.1 9.6 0.00 0.09 0.09 91 1020.9
20260831121612 66 359 1.7 4.3 0.00 0.09 0.09 90 1020.4
20260831121055 67 181 0.0 2.6 0.00 0.09 0.09 91 1020.0
20260831120555 67 0 0.0 2.6 0.00 0.09 0.09 91 1020.2
20260831120109 66 173 0.9 2.6 0.00 0.09 0.09 91 1020.2
20260831115554 66 0 0.0 0.0 0.00 0.09 0.09 90 1020.3
20260831115054 66 0 0.0 0.9 0.00 0.09 0.09 90 1020.4
20260831114603 66 0 0.0 0.9 0.00 0.09 0.09 90 1020.5
20260831114052 66 0 0.0 0.9 0.00 0.09 0.09 90 1020.5
20260831113552 66 0 0.0 0.9 0.01 0.09 0.09 90 1020.5
20260831113105 66 0 0.0 2.6 0.01 0.09 0.09 90 1020.5
20260831112556 66 0 0.0 3.5 0.01 0.09 0.09 90 1020.3
20260831112054 66 168 1.7 5.2 0.01 0.09 0.09 90 1020.7
20260831111608 66 168 2.6 5.2 0.01 0.09 0.09 90 1020.9
20260831111054 66 169 2.6 4.3 0.01 0.09 0.09 90 1020.9
20260831110559 66 175 2.6 6.1 0.01 0.09 0.09 90 1020.7
20260831110115 66 172 3.5 6.1 0.01 0.09 0.09 90 1020.9
20260831105555 66 167 2.6 5.2 0.01 0.09 0.09 90 1020.9
20260831105056 66 170 2.6 5.2 0.01 0.09 0.09 90 1020.9
20260831104600 66 172 2.6 5.2 0.02 0.09 0.09 90 1021.0
20260831104054 66 0 0.0 0.9 0.02 0.09 0.09 90 1021.0
20260831103556 66 0 0.0 1.7 0.01 0.08 0.08 89 1021.0
20260831103106 66 0 0.0 3.5 0.02 0.08 0.08 89 1021.2
20260831102558 66 74 0.9 3.5 0.02 0.08 0.08 89 1021.3
20260831102055 66 68 0.9 2.6 0.02 0.08 0.08 89 1021.5
20260831101608 66 0 0.0 4.3 0.02 0.08 0.08 88 1021.5
20260831101055 66 68 0.9 4.3 0.02 0.08 0.08 88 1021.5
20260831100556 66 68 1.7 4.3 0.02 0.08 0.08 88 1021.5
20260831100110 66 74 2.6 5.2 0.02 0.08 0.08 88 1021.6
20260831095554 66 86 2.6 7.0 0.02 0.08 0.08 88 1022.0
20260831095056 66 52 3.5 7.8 0.02 0.08 0.08 87 1022.0
20260831094602 66 71 4.3 7.8 0.01 0.07 0.07 86 1022.0
20260831094055 66 61 3.5 7.0 0.01 0.07 0.07 87 1022.1
20260831093551 66 46 3.5 8.7 0.01 0.07 0.07 87 1022.1
20260831093103 66 52 5.2 8.7 0.00 0.06 0.06 86 1022.1
20260831092554 66 65 4.3 7.8 0.00 0.06 0.06 86 1022.1
20260831092055 66 67 5.2 7.8 0.01 0.06 0.06 86 1022.1
20260831091608 66 69 2.6 5.2 0.04 0.06 0.06 86 1022.1
20260831091055 66 88 1.7 6.1 0.05 0.06 0.06 86 1022.1
20260831090553 66 92 2.6 6.1 0.06 0.06 0.06 86 1021.7
20260831085551 66 104 3.5 7.0 0.06 0.06 0.06 85 1021.4
20260831085051 66 179 0.9 9.6 0.06 0.06 0.06 85 1021.0
20260831084600 66 176 5.2 10.4 0.06 0.06 0.06 85 1021.0
20260831084054 66 174 7.0 10.4 0.06 0.06 0.06 84 1021.1
20260831083554 67 129 6.1 12.2 0.06 0.06 0.06 83 1021.0
20260831083106 67 156 5.2 14.8 0.06 0.06 0.06 83 1021.0
20260831082554 67 153 7.8 17.4 0.06 0.06 0.06 81 1021.1
20260831082055 68 163 12.2 18.2 0.05 0.05 0.05 79 1021.4
20260831081605 69 141 12.2 18.2 0.02 0.02 0.02 77 1021.3
20260831081055 70 140 13.0 17.4 0.01 0.01 0.01 74 1020.9
20260831080558 73 166 4.3 13.0 0.00 0.00 0.00 65 1020.5
20260831080104 74 186 1.7 5.2 0.00 0.00 0.00 58 1020.4
20260831075556 75 194 2.6 5.2 0.00 0.00 0.00 55 1020.6
20260831075051 76 198 2.6 5.2 0.00 0.00 0.00 54 1020.5
20260831074606 77 202 2.6 5.2 0.00 0.00 0.00 50 1020.4
20260831074054 77 202 2.6 11.3 0.00 0.00 0.00 48 1020.2
20260831073555 77 208 2.6 13.0 0.00 0.00 0.00 49 1020.2
20260831073112 77 190 1.7 13.0 0.00 0.00 0.00 52 1020.1
20260831072556 77 170 7.8 13.0 0.00 0.00 0.00 53 1020.2
20260831072055 77 122 3.5 7.0 0.00 0.00 0.00 56 1020.2
20260831071601 77 122 4.3 8.7 0.00 0.00 0.00 56 1020.2
20260831071058 77 141 5.2 8.7 0.00 0.00 0.00 53 1020.1
20260831070554 77 150 1.7 5.2 0.00 0.00 0.00 49 1020.1
20260831070110 77 268 0.9 5.2 0.00 0.00 0.00 47 1020.0
20260831065551 76 264 2.6 5.2 0.00 0.00 0.00 49 1020.1
20260831065054 76 321 1.7 5.2 0.00 0.00 0.00 53 1019.9
20260831064610 77 198 0.9 2.6 0.00 0.00 0.00 58 1019.8
20260831064052 77 0 0.0 0.9 0.00 0.00 0.00 57 1019.6
20260831063553 77 0 0.0 1.7 0.00 0.00 0.00 57 1019.8
20260831063109 77 198 0.0 1.7 0.00 0.00 0.00 55 1019.9
20260831062555 77 198 0.0 1.7 0.00 0.00 0.00 55 1019.9
20260831062057 78 0 0.0 7.0 0.00 0.00 0.00 55 1019.9
20260831061602 78 0 0.0 7.0 0.00 0.00 0.00 53 1020.0
20260831061054 78 243 2.6 7.0 0.00 0.00 0.00 52 1020.2
20260831060554 77 274 1.7 4.3 0.00 0.00 0.00 54 1020.1
20260831060107 77 303 1.7 4.3 0.00 0.00 0.00 57 1020.2
20260831055554 77 306 1.7 4.3 0.00 0.00 0.00 60 1020.1
20260831055054 77 302 1.7 6.1 0.00 0.00 0.00 61 1020.1
20260831054607 77 287 0.9 6.1 0.00 0.00 0.00 62 1020.1
20260831054051 77 293 0.0 6.1 0.00 0.00 0.00 62 1020.2
20260831053558 77 249 1.7 6.1 0.00 0.00 0.00 60 1020.3
20260831053105 79 243 1.7 4.3 0.00 0.00 0.00 58 1020.2
20260831052550 80 236 2.6 5.2 0.00 0.00 0.00 53 1020.2
20260831052050 81 238 1.7 5.2 0.00 0.00 0.00 49 1020.2
20260831051557 80 282 0.9 2.6 0.00 0.00 0.00 49 1020.2
20260831051053 80 263 0.0 2.6 0.00 0.00 0.00 51 1020.3
20260831050552 80 0 0.0 2.6 0.00 0.00 0.00 51 1020.2
20260831050106 80 263 1.7 3.5 0.00 0.00 0.00 50 1020.0
20260831045555 80 263 0.9 3.5 0.00 0.04 0.00 50 1020.1
20260831045055 80 264 0.9 2.6 0.00 0.04 0.00 50 1020.2
20260831044631 79 263 0.9 2.6 0.00 0.04 0.00 50 1020.0
20260831044057 79 264 0.0 1.7 0.00 0.04 0.00 50 1019.8
20260831043551 79 0 0.0 1.7 0.00 0.04 0.00 50 1019.8
20260831043108 79 263 0.0 1.7 0.00 0.04 0.00 50 1019.9
20260831042554 79 263 0.0 2.6 0.00 0.04 0.00 50 1019.9
20260831042051 79 263 0.9 2.6 0.00 0.04 0.00 50 1019.9
20260831041614 79 263 0.9 1.7 0.00 0.04 0.00 51 1019.9
20260831041058 78 263 0.9 1.7 0.00 0.04 0.00 51 1019.9
20260831040555 78 263 0.9 1.7 0.00 0.04 0.00 51 1019.8